カタログに戻る

STARLINK-32660

運用中通信VLEO
NORAD 62205·PAYLOAD·🇺🇸 United States

打ち上げ Dec 4, 2024 から Cape Canaveral Space Force Station

Loading…

次のパス (今後24時間)

TLE

最新Source: CelesTrak SupGP

元期: Sep 14, 2026, 15:29 UTC

1 62205C 24229P   26257.64562500 -.00012382  00000+0 -44848-3 0  2579
2 62205  43.0000 269.4016 0001545 276.2245  75.7027 15.27582743    18

AllMySatでSTARLINK-32660をリアルタイム追跡

Download on the App Store